• In France
  • List of Countries
  • For 7 days
  • Water Temperature
  • Satellite Maps
  • Weather Map
  • Weather Widgets
  • user-avatar
    Login

    Hourly Weather Man

    Today, 14 December, Thursday

    Time Temperature Precipitation Wind Pressure Humidity
    00:00 +25°C° 0.5 mm 1 mps 725 mmHg 69%
    01:00 +25°C° 0.5 mm 1 mps 725 mmHg 77%
    02:00 +24°C° 0.5 mm 1 mps 725 mmHg 84%
    03:00 +24°C° 0.7 mm 1 mps 725 mmHg 87%
    04:00 +24°C° 0.7 mm 1 mps 725 mmHg 91%
    05:00 +23°C° 0 mm 1 mps 725 mmHg 94%
    06:00 +25°C° 0 mm 1 mps 726 mmHg 89%
    07:00 +26°C° 0 mm 1 mps 726 mmHg 83%
    08:00 +28°C° 0 mm 1 mps 726 mmHg 78%
    09:00 +31°C° 0 mm 1 mps 726 mmHg 66%
    10:00 +34°C° 0 mm 1 mps 726 mmHg 53%
    11:00 +35°C° 0 mm 0 mps 726 mmHg 41%
    12:00 +34°C° 0 mm 0 mps 726 mmHg 40%
    13:00 +36°C° 0 mm 1 mps 725 mmHg 40%
    14:00 +35°C° 0 mm 1 mps 725 mmHg 39%
    15:00 +34°C° 0 mm 1 mps 724 mmHg 44%
    16:00 +32°C° 0 mm 1 mps 724 mmHg 49%
    17:00 +31°C° 0 mm 1 mps 724 mmHg 54%
    18:00 +28°C° 0.2 mm 0 mps 725 mmHg 58%
    19:00 +27°C° 0.2 mm 0 mps 725 mmHg 61%
    20:00 +26°C° 0.2 mm 0 mps 725 mmHg 65%
    21:00 +27°C° 0.1 mm 1 mps 726 mmHg 69%
    22:00 +27°C° 0.1 mm 1 mps 726 mmHg 74%
    23:00 +26°C° 0.1 mm 1 mps 726 mmHg 78%

    Tomorrow, 15 December, Friday

    Time Temperature Precipitation Wind Pressure Humidity
    00:00 +25°C° 0.7 mm 1 mps 726 mmHg 82%
    01:00 +25°C° 0.7 mm 1 mps 725 mmHg 86%
    02:00 +24°C° 0.7 mm 1 mps 725 mmHg 91%
    03:00 +24°C° 0.1 mm 1 mps 725 mmHg 92%
    04:00 +24°C° 0.1 mm 1 mps 725 mmHg 93%
    05:00 +24°C° 0.1 mm 1 mps 725 mmHg 95%
    06:00 +25°C° 0 mm 1 mps 726 mmHg 88%
    07:00 +27°C° 0 mm 1 mps 726 mmHg 82%
    08:00 +28°C° 0 mm 1 mps 727 mmHg 76%
    09:00 +30°C° 0.4 mm 1 mps 726 mmHg 68%
    10:00 +32°C° 0.4 mm 1 mps 726 mmHg 60%
    11:00 +32°C° 0.4 mm 0 mps 726 mmHg 52%
    12:00 +34°C° 1 mm 1 mps 725 mmHg 54%
    13:00 +33°C° 1 mm 1 mps 724 mmHg 55%
    14:00 +33°C° 1 mm 1 mps 723 mmHg 57%
    15:00 +31°C° 0.4 mm 1 mps 723 mmHg 61%
    16:00 +28°C° 0.4 mm 0 mps 723 mmHg 64%
    17:00 +27°C° 0.4 mm 0 mps 724 mmHg 67%
    18:00 +28°C° 0.1 mm 1 mps 724 mmHg 71%
    19:00 +27°C° 0.1 mm 1 mps 725 mmHg 75%
    20:00 +26°C° 0.1 mm 1 mps 725 mmHg 79%
    21:00 +26°C° 0.6 mm 1 mps 726 mmHg 83%
    22:00 +25°C° 0.6 mm 1 mps 726 mmHg 87%
    23:00 +25°C° 0.6 mm 1 mps 726 mmHg 90%

    Day after tomorrow, 16 December, Saturday

    Time Temperature Precipitation Wind Pressure Humidity
    00:00 +24°C° 0.6 mm 1 mps 725 mmHg 92%
    01:00 +24°C° 0.6 mm 1 mps 725 mmHg 93%
    02:00 +24°C° 0.6 mm 1 mps 725 mmHg 94%
    03:00 +24°C° 0.2 mm 1 mps 725 mmHg 95%
    04:00 +24°C° 0.2 mm 1 mps 725 mmHg 95%
    05:00 +23°C° 0.2 mm 1 mps 725 mmHg 95%
    06:00 +25°C° 0 mm 1 mps 726 mmHg 90%
    07:00 +26°C° 0 mm 1 mps 726 mmHg 84%
    08:00 +27°C° 0 mm 1 mps 727 mmHg 79%
    09:00 +29°C° 1.1 mm 1 mps 727 mmHg 71%
    10:00 +31°C° 1.1 mm 1 mps 726 mmHg 62%
    11:00 +34°C° 1.1 mm 1 mps 726 mmHg 54%
    12:00 +31°C° 0.1 mm 0 mps 725 mmHg 52%
    13:00 +31°C° 0.1 mm 0 mps 724 mmHg 50%
    14:00 +31°C° 0.1 mm 0 mps 724 mmHg 48%
    15:00 +30°C° 0 mm 0 mps 724 mmHg 52%
    16:00 +29°C° 0 mm 0 mps 724 mmHg 55%
    17:00 +28°C° 0 mm 0 mps 724 mmHg 59%
    18:00 +27°C° 0.3 mm 0 mps 724 mmHg 63%
    19:00 +28°C° 0.3 mm 1 mps 725 mmHg 68%
    20:00 +27°C° 0.3 mm 1 mps 726 mmHg 73%
    21:00 +26°C° 1 mm 1 mps 726 mmHg 78%
    22:00 +25°C° 1 mm 1 mps 726 mmHg 84%
    23:00 +24°C° 1 mm 1 mps 726 mmHg 89%

    17 December, Sunday

    Time Temperature Precipitation Wind Pressure Humidity
    00:00 +24°C° 0.3 mm 1 mps 725 mmHg 90%
    01:00 +24°C° 0.3 mm 1 mps 725 mmHg 92%
    02:00 +24°C° 0.3 mm 1 mps 724 mmHg 93%
    03:00 +24°C° 0.1 mm 1 mps 725 mmHg 94%
    04:00 +23°C° 0.1 mm 1 mps 725 mmHg 94%
    05:00 +23°C° 0.1 mm 1 mps 725 mmHg 95%
    06:00 +25°C° 0 mm 1 mps 725 mmHg 89%
    07:00 +26°C° 0 mm 1 mps 726 mmHg 84%
    08:00 +27°C° 0 mm 1 mps 726 mmHg 79%
    09:00 +30°C° 0 mm 1 mps 726 mmHg 67%
    10:00 +33°C° 0 mm 1 mps 726 mmHg 55%
    11:00 +36°C° 0 mm 1 mps 726 mmHg 43%
    12:00 +36°C° 0 mm 1 mps 725 mmHg 39%
    13:00 +35°C° 0 mm 0 mps 724 mmHg 34%
    14:00 +36°C° 0 mm 0 mps 723 mmHg 30%
    15:00 +34°C° 0 mm 0 mps 723 mmHg 35%
    16:00 +32°C° 0 mm 0 mps 723 mmHg 40%
    17:00 +29°C° 0 mm 0 mps 723 mmHg 45%
    18:00 +28°C° 0 mm 0 mps 723 mmHg 48%
    19:00 +27°C° 0 mm 0 mps 724 mmHg 51%
    20:00 +26°C° 0 mm 0 mps 725 mmHg 54%
    21:00 +25°C° 0 mm 0 mps 725 mmHg 58%
    22:00 +27°C° 0 mm 1 mps 725 mmHg 62%
    23:00 +26°C° 0 mm 1 mps 725 mmHg 66%

    18 December, Monday

    Time Temperature Precipitation Wind Pressure Humidity
    00:00 +26°C° 0.1 mm 1 mps 725 mmHg 71%
    01:00 +25°C° 0.1 mm 1 mps 724 mmHg 75%
    02:00 +24°C° 0.1 mm 1 mps 724 mmHg 80%
    03:00 +24°C° 0 mm 1 mps 724 mmHg 83%
    04:00 +24°C° 0 mm 1 mps 724 mmHg 86%
    05:00 +24°C° 0 mm 1 mps 725 mmHg 89%
    06:00 +25°C° 0 mm 1 mps 725 mmHg 85%
    07:00 +26°C° 0 mm 1 mps 726 mmHg 82%
    08:00 +27°C° 0 mm 1 mps 726 mmHg 78%
    09:00 +29°C° 0 mm 1 mps 726 mmHg 70%
    10:00 +31°C° 0 mm 1 mps 726 mmHg 62%
    11:00 +33°C° 0 mm 1 mps 725 mmHg 54%
    12:00 +34°C° 0 mm 1 mps 725 mmHg 51%
    13:00 +34°C° 0 mm 1 mps 724 mmHg 47%
    14:00 +35°C° 0 mm 1 mps 723 mmHg 44%
    15:00 +33°C° 0.5 mm 1 mps 723 mmHg 52%
    16:00 +31°C° 0.5 mm 1 mps 723 mmHg 59%
    17:00 +30°C° 0.5 mm 1 mps 723 mmHg 67%
    18:00 +28°C° 0.5 mm 1 mps 724 mmHg 72%
    19:00 +27°C° 0.5 mm 1 mps 724 mmHg 78%
    20:00 +26°C° 0.5 mm 1 mps 725 mmHg 83%
    21:00 +26°C° 0 mm 1 mps 725 mmHg 86%
    22:00 +25°C° 0 mm 1 mps 725 mmHg 89%
    23:00 +25°C° 0 mm 1 mps 725 mmHg 91%

    19 December, Tuesday

    Time Temperature Precipitation Wind Pressure Humidity
    00:00 +25°C° 0.1 mm 1 mps 725 mmHg 92%
    01:00 +24°C° 0.1 mm 1 mps 724 mmHg 94%
    02:00 +24°C° 0.1 mm 1 mps 724 mmHg 95%
    03:00 +24°C° 0 mm 1 mps 724 mmHg 94%
    04:00 +24°C° 0 mm 1 mps 725 mmHg 94%
    05:00 +24°C° 0 mm 1 mps 725 mmHg 94%
    06:00 +25°C° 0 mm 1 mps 725 mmHg 89%
    07:00 +26°C° 0 mm 1 mps 726 mmHg 83%
    08:00 +27°C° 0 mm 1 mps 726 mmHg 78%
    09:00 +29°C° 0 mm 1 mps 726 mmHg 69%
    10:00 +31°C° 0 mm 1 mps 726 mmHg 60%
    11:00 +33°C° 0 mm 1 mps 726 mmHg 51%
    12:00 +34°C° 0.1 mm 1 mps 725 mmHg 49%
    13:00 +34°C° 0.1 mm 1 mps 724 mmHg 48%
    14:00 +34°C° 0.1 mm 1 mps 723 mmHg 46%
    15:00 +33°C° 0 mm 1 mps 723 mmHg 51%
    16:00 +32°C° 0 mm 1 mps 723 mmHg 56%
    17:00 +30°C° 0 mm 1 mps 723 mmHg 60%
    18:00 +29°C° 0.5 mm 1 mps 724 mmHg 67%
    19:00 +27°C° 0.5 mm 1 mps 724 mmHg 74%
    20:00 +26°C° 0.5 mm 1 mps 725 mmHg 81%
    21:00 +26°C° 0.8 mm 1 mps 725 mmHg 84%
    22:00 +25°C° 0.8 mm 1 mps 725 mmHg 87%
    23:00 +24°C° 0.8 mm 1 mps 725 mmHg 90%
    Show more